Regional Weather Roundup
Issued by NWS Cleveland, OH

Home | Current Version | Previous Version | Graphics & Text | Print | Product List | Glossary On
Versions: 1 2 3 4 5 6 7 8 9 10 11 12 13 14 15 16 17 18 19 20 21 22 23 24 25 26 27 28 29 30 31 32 33 34 35 36 37 38 39 40 41 42 43 44 45 46 47 48 49 50
818
ASUS41 KCLE 160712
RWRCLE
OHIO REGIONAL WEATHER ROUNDUP
NATIONAL WEATHER SERVICE WILMINGTON, OH
200 AM EST TUE JAN 16 2018

NOTE: "FAIR" INDICATES FEW OR NO CLOUDS BELOW 12,000 FEET WITH NO
SIGNIFICANT WEATHER AND/OR OBSTRUCTIONS TO VISIBILITY.

OHZ001>008-015>018-024>027-034-035-043-044-160800-
   NORTHWEST OHIO

CITY           SKY/WX    TMP DP  RH WIND       PRES   REMARKS
DEFIANCE       CLOUDY     8   2  76 SW9       30.35R WCI  -5
FINDLAY        CLOUDY    11   3  70 SW15      30.35R WCI  -5
TOLEDO EXPRESS FLURRIES  11   8  88 SW15      30.32R WCI  -5
TOLEDO EXEC    MOCLDY    12   6  77 SW13      30.34R WCI  -3
LIMA           MOCLDY     7   2  80 W15       30.35R WCI -10
$$

OHZ009>014-019>023-028>033-038-089-160800-
   NORTHEAST OHIO

CITY           SKY/WX    TMP DP  RH WIND       PRES   REMARKS
CLE-HOPKINS    MOCLDY    23  19  85 S5        30.33R WCI  17
CLE-LAKEFRONT  CLOUDY    23  17  78 SW9       30.31R WCI  13
CUY CO. ARPT   NOT AVBL
LORAIN-ELYRIA  CLOUDY    19  14  81 W5        30.31R WCI  12
ASHTABULA      CLOUDY    25  22  88 W10       30.30R WCI  15
AKRON-CANTON   CLOUDY    25  17  72 W9        30.29R WCI  15
WOOSTER        FAIR      18  15  88 CALM      30.29S
MANSFIELD      FLURRIES  22  19  89 W12G17    30.28R WCI  10
YOUNGSTOWN     LGT SNOW  25  22  88 SW9       30.28R VSB 1   WCI  15
$$

OHZ042-051>053-060>062-070>072-077>081-160800-
  SOUTHWEST OHIO

CITY           SKY/WX    TMP DP  RH WIND       PRES   REMARKS
CINC-COVINGTON CLOUDY    13   7  77 W13       30.41R WCI  -2
CINC-LUNKEN    LGT SNOW  15   7  70 NW6       30.46R WCI   6
HAMILTON       FAIR      12   5  73 NW12      30.44R WCI  -2
DAYTON         MOCLDY    10   5  80 W15       30.38R WCI  -7
WRIGHT-PAT AFB CLOUDY    13   5  71 W10       30.38R WCI  -1
DAYTON GENERAL FAIR      11   4  73 W7        30.37S WCI   0
WILMINGTON     LGT SNOW  15  12  88 W16       30.35R FOG     WCI  -1
$$

OHZ036-037-039>041-045>050-054>059-063>069-073>076-082>088-160800-
  CENTRAL AND SOUTHEAST OHIO

CITY           SKY/WX    TMP DP  RH WIND       PRES   REMARKS
COLUMBUS       LGT SNOW  25  23  92 S5        30.33R VSB 1   WCI  19
OSU AIRPORT    LGT SNOW  15  11  83 W20       30.35R FOG     WCI  -2
BOLTON FIELD   LGT SNOW  17  14  88 W12G22    30.34R WCI   4
RICKENBACK AFB LGT SNOW  24  23  99 NW14G28   30.34R WCI  11
NEWARK         LGT SNOW  26  24  92 SW3       30.31S
MARION         CLOUDY    13   7  77 NW14      30.33R WCI  -2
LANCASTER      LGT SNOW  26  24  92 SW6       30.33R FOG     WCI  19
ZANESVILLE     LGT SNOW  26  24  92 S3        30.32S FOG
NEW PHILLY     LGT SNOW  25  22  88 CALM      30.32S FOG
$$




USA.gov is the U.S. government's official web portal to all federal, state and local government web resources and services.